Hourly Data Report for April 11, 2002

SHERBROOKE A
QUEBEC

45°26'00.000" N
71°41'00.000" W
241.40 m
7028124
71610
YSC

Download Data

Hourly Data (April 2002)
Hourly Data Report for April 11, 2002
TIME
LST
Temp Definition
°C
Dew Point Definition
°C
Rel Hum Definition
%
Precip. Amount Definition
mm

Wind Dir Definition
10's deg

Wind Spd Definition
km/h
Visibility Definition
km
Stn Press Definition
kPa
Hmdx Definition


Wind Chill Definition


Weather Definition


00:00 -1.9 -4.5 82     0 15.0 100.57      
01:00 -3.9 -5.6 88   12 6 12.9 100.62   -7  
02:00 -5.0 -6.3 91   7 4 9.7 100.68   -7  
03:00 -4.3 -5.6 91   7 6 9.7 100.71   -7  
04:00 -4.1 -5.5 90   9 7 11.3 100.73   -7  
05:00 -3.9 -5.5 89   8 9 12.9 100.76   -8  
06:00 -2.9 -4.5 89   9 4 12.9 100.86   -4 Moderate Snow
07:00 -0.3 -2.8 83     0 24.1 100.93     Mainly Clear
08:00 2.3 -1.7 75     0 24.1 100.94     Mainly Clear
09:00 6.0 -2.1 56   27 4 24.1 100.94     Mainly Clear
10:00 8.5 -6.0 35   11 4 24.1 100.90     Mostly Cloudy
11:00 9.3 -6.6 32   18 15 24.1 100.81     Mostly Cloudy
12:00 10.4 -7.2 28   14 19 24.1 100.77     Mainly Clear
13:00 11.3 -7.1 27   18 11 24.1 100.69     Mainly Clear
14:00 12.1 -7.9 24   14 7 24.1 100.58     Mostly Cloudy
15:00 12.3 -5.6 28   19 13 24.1 100.53     Mostly Cloudy
16:00 12.5 -5.0 29   19 15 24.1 100.48     Mostly Cloudy
17:00 11.9 -3.3 34   19 9 15.0 100.49      
18:00 10.7 -2.6 39   15 9 15.0 100.39      
19:00 9.5 -2.4 43   12 7 15.0 100.35      
20:00 7.9 -1.6 51   9 7 15.0 100.33      
21:00 7.1 -3.3 48   13 13 15.0 100.34      
22:00 6.2 -4.0 48   9 6 15.0 100.28      
23:00 5.5 -2.8 55   12 13 15.0 100.25      

Notes on Data Quality.

Legend

  • E = Estimated
  • M = Missing
  • NA = Not Available*
  • [empty] = Indicates an unobserved value
Date modified: